Hourly Data Report for June 10, 2021

VINELAND STATION RCS
ONTARIO
Current Station Operator: ECCC - MSC

43°11'00.000" N
79°24'00.000" W
79.20 m
6139148
71171
XVN

Download Data

Hourly Data (June 2021)
Hourly Data Report for June 10, 2021
TIME
LST
Temp Definition
°C
Dew Point Definition
°C
Rel Hum Definition
%
Precip. Amount Definition
mm

Wind Dir Definition
10's deg

Wind Spd Definition
km/h
Visibility Definition
km
Stn Press Definition
kPa
Hmdx Definition


Wind Chill Definition


Weather Definition


00:00 17.4 16.4 94 0.0 34 2   100.83     LegendNANA
01:00 17.3 16.6 95 0.0 2 3   100.81     LegendNANA
02:00 17.2 16.5 96 0.0   0   100.79     LegendNANA
03:00 16.4 15.6 95 0.0 13 1   100.78     LegendNANA
04:00 16.8 15.8 94 0.0 4 4   100.76     LegendNANA
05:00 17.6 16.1 91 0.0 5 6   100.86     LegendNANA
06:00 17.6 14.9 84 0.0 7 10   100.85     LegendNANA
07:00 18.7 15.3 81 0.0 6 9   100.85     LegendNANA
08:00 18.9 14.7 77 0.0 5 14   100.86     LegendNANA
09:00 19.0 14.2 73 0.0 5 15   100.86     LegendNANA
10:00 18.8 13.9 73 0.0 5 15   100.83     LegendNANA
11:00 19.0 14.2 74 0.0 6 15   100.83     LegendNANA
12:00 19.1 13.3 69 0.0 6 12   100.79     LegendNANA
13:00 19.5 13.3 68 0.0 6 18   100.76     LegendNANA
14:00 19.4 12.2 63 0.0 6 17   100.71     LegendNANA
15:00 19.6 13.0 66 0.0 6 14   100.65     LegendNANA
16:00 18.5 10.8 61 0.0 7 15   100.59     LegendNANA
17:00 18.0 10.7 62 0.0 7 12   100.53     LegendNANA
18:00 17.7 10.0 60 0.0 7 15   100.49     LegendNANA
19:00 16.9 11.1 69 0.0 4 10   100.49     LegendNANA
20:00 16.1 11.5 74 0.0 8 7   100.48     LegendNANA
21:00 16.2 11.5 74 0.0 7 11   100.48     LegendNANA
22:00 16.3 12.3 77 0.0 9 8   100.47     LegendNANA
23:00 15.6 11.0 74 0.0 17 2   100.45     LegendNANA

Notes on Data Quality.

Legend

  • E = Estimated
  • M = Missing
  • NA = Not Available*
  • [empty] = Indicates an unobserved value
Date modified: